Abilene Dyess, TX

11:22 AM CDT on October 21, 2017 (GMT -0500)
Dyess Air Force Base

Weather History for KDYS - July, 2012

Change the Weather History Date:

Friday, July 13, 2012

  Actual Average Record
Temperature  
Mean Temperature 84 °F -  
Max Temperature 97 °F 94 °F 105 °F (2004)
Min Temperature 70 °F 72 °F 68 °F (2004)
Cooling Degree Days 18    
Growing Degree Days 34 (Base 50)    
Moisture  
Dew Point 63 °F    
Average Humidity 51    
Maximum Humidity 86    
Minimum Humidity 25    
Precipitation  
Precipitation 0.00 in - - ()
Sea Level Pressure  
Sea Level Pressure 29.93 in    
Wind  
Wind Speed 5 mph (SE)    
Max Wind Speed 14 mph    
Max Gust Speed -    
Visibility 10 miles    
Events      
Averages and records for this station are not official NWS values.
T = Trace of Precipitation, MM = Missing Value Source: NWS Daily Summary

Daily Weather History Graph

Daily Weather History Graph

Search for Another Location

Airport or City:

Trip Planner

Search our weather history database for the weather conditions in past years. The results will help you decide how hot, cold, wet, or windy it might be!

Date:

Astronomy

Jul. 13, 2012 Rise Set
Actual Time 6:42 AM CDT 8:48 PM CDT
Civil Twilight 6:14 AM CDT 9:15 PM CDT
Nautical Twilight 5:40 AM CDT 9:49 PM CDT
Astronomical Twilight 5:03 AM CDT 10:26 PM CDT
Moon 2:16 AM CDT (7/13) 4:21 PM CDT (7/13)
Length of Visible Light 15h 01m
Length of Day
14h 05m
Waning Crescent, 26% of the Moon is Illuminated
Jul 13
Waning Crescent
Jul 18
New
Jul 26
First Quarter
Aug 1
Full
Aug 9
Last Quarter

Hourly Weather History & Observations

Time (CDT) Temp. Heat Index Dew Point Humidity Pressure Visibility Wind Dir Wind Speed Gust Speed Precip Events Conditions
12:55 AM 77.0 °F - 66.0 °F 69% 29.94 in 10.0 mi SSE 5.8 mph - N/A   Clear
1:55 AM 75.4 °F - 66.2 °F 73% 29.94 in 10.0 mi SSE 4.6 mph - N/A   Clear
2:55 AM 76.3 °F - 66.4 °F 71% 29.93 in 10.0 mi SE 5.8 mph - N/A   Clear
3:55 AM 72.9 °F - 66.6 °F 81% 29.93 in 10.0 mi SSE 4.6 mph - N/A   Clear
4:55 AM 71.6 °F - 66.2 °F 83% 29.94 in 10.0 mi Calm Calm - N/A   Clear
5:55 AM 72.7 °F - 66.7 °F 82% 29.95 in 10.0 mi East 3.5 mph - N/A   Clear
6:55 AM 70.5 °F - 66.0 °F 86% 29.96 in 10.0 mi Calm Calm - N/A   Clear
7:55 AM 76.3 °F - 67.8 °F 75% 29.97 in 10.0 mi Calm Calm - N/A   Clear
8:55 AM 82.0 °F 85.1 °F 68.2 °F 63% 29.97 in 10.0 mi Calm Calm - N/A   Clear
9:55 AM 86.2 °F 89.1 °F 67.5 °F 53% 29.97 in 10.0 mi Calm Calm - N/A   Clear
10:55 AM 88.9 °F 91.0 °F 65.5 °F 46% 29.97 in 10.0 mi Calm Calm - N/A   Clear
11:55 AM 89.8 °F 90.7 °F 63.0 °F 41% 29.97 in 10.0 mi East 9.2 mph - N/A   Partly Cloudy
12:55 PM 92.8 °F 92.8 °F 60.3 °F 34% 29.97 in 10.0 mi ESE 8.1 mph - N/A   Partly Cloudy
1:55 PM 94.5 °F 94.4 °F 60.1 °F 32% 29.95 in 10.0 mi Variable 3.5 mph - N/A   Scattered Clouds
2:55 PM 94.8 °F 93.8 °F 57.7 °F 29% 29.93 in 10.0 mi Variable 5.8 mph - N/A   Partly Cloudy
3:55 PM 97.2 °F 95.6 °F 56.3 °F 25% 29.91 in 10.0 mi ESE 9.2 mph - N/A   Partly Cloudy
4:55 PM 97.2 °F 96.0 °F 56.5 °F 26% 29.88 in 10.0 mi SE 4.6 mph - N/A   Clear
5:55 PM 96.1 °F 94.8 °F 56.8 °F 27% 29.87 in 10.0 mi ESE 10.4 mph - N/A   Clear
6:55 PM 94.5 °F 94.0 °F 59.2 °F 31% 29.87 in 10.0 mi ESE 13.8 mph - N/A   Clear
7:55 PM 92.8 °F 91.7 °F 58.3 °F 31% 29.88 in 10.0 mi SE 11.5 mph - N/A   Clear
8:55 PM 90.0 °F 88.8 °F 58.3 °F 34% 29.88 in 10.0 mi SE 9.2 mph - N/A   Clear
9:55 PM 87.1 °F 87.0 °F 60.4 °F 41% 29.91 in 10.0 mi ESE 9.2 mph - N/A   Clear
10:55 PM 84.9 °F 85.2 °F 61.2 °F 45% 29.92 in 10.0 mi ESE 9.2 mph - N/A   Clear
11:55 PM 83.8 °F 84.5 °F 62.2 °F 48% 29.94 in 10.0 mi ESE 11.5 mph - N/A   Clear